Location: Passau
(48.5830°N, 13.4830°E)
Time: 23:14:03
(UTC+01:00)

ISS - Visible Passes

Search period start: 12 December 2018 00:00
Search period end: 22 December 2018 00:00
Orbit: 401 x 408 km, 51.6° (Epoch: 13 December)

Date Brightness Start Highest point End Pass type
(mag) Time Alt. Az. Time Alt. Az. Time Alt. Az.
12 Dec -2.3 17:22:25 10° WNW 17:25:28 36° SSW 17:28:29 10° SE visible
13 Dec -0.5 18:08:08 10° WSW 18:09:18 12° SW 18:10:28 10° SSW visible
14 Dec -0.8 17:14:57 10° W 17:17:21 19° SW 17:19:45 10° S visible
